Regional Weather Roundup
Issued by NWS Glasgow, MT

Home | Current Version | Previous Version | Text Only | Print | Product List | Glossary On
Versions: 1 2 3 4 5 6 7 8 9 10 11 12 13 14 15 16 17 18 19 20 21 22 23 24 25 26 27 28 29 30 31 32 33 34 35 36 37 38 39 40 41 42 43 44 45 46 47 48 49 50
343
ASUS45 KGGW 082315
RWRGGW
HOURLY REGIONAL WEATHER ROUNDUP FOR NORTHEAST MONTANA
NATIONAL WEATHER SERVICE GLASGOW MONTANA
400 PM MST MON FEB 08 2016

NOTE: "FAIR" INDICATES FEW OR NO CLOUDS BELOW 12,000 FEET WITH NO
SIGNIFICANT WEATHER AND/OR OBSTRUCTIONS TO VISISBILITY.

NORTHEAST MONTANA


CITY           SKY/WX    TMP DP  RH WIND       PRES   REMARKS
GLASGOW        CLOUDY    35  25  66 E8        30.28S
PLENTYWOOD       N/A     35  21  56 NW9         N/A
WOLF POINT     CLOUDY    38  20  48 W5        30.31R
JORDAN           N/A     45  29  53 CALM      30.26F
WINNETT          N/A     55  27  34 CALM        N/A
SIDNEY         CLOUDY    37  12  35 N8        30.30S
GLENDIVE       CLOUDY    39  14  35 N6        30.30S
MALTA            N/A     46  30  53 W9          N/A
SCOBEY           N/A     36  16  44 W5        30.25R

FORT PECK REPORTS


CITY           SKY/WX    TMP DP  RH WIND       PRES   REMARKS
FORT PECK        N/A     39  15  37 E3          N/A
THE PINES        N/A     42  17  36 NE3         N/A

SOUTHEAST MONTANA


CITY           SKY/WX    TMP DP  RH WIND       PRES   REMARKS
BILLINGS       MOSUNNY   58  25  28 NW23G32   30.31F
MILES CITY     CLOUDY    48  26  42 NW13      30.26F
BAKER          CLOUDY    39  10  30 NW10      30.27F
LIVINGSTON     CLOUDY    54  28  36 W25G36    30.41F

CENTRAL MONTANA


CITY           SKY/WX    TMP DP  RH WIND       PRES   REMARKS
HAVRE          CLOUDY    56  30  37 SW3       30.28S
LEWISTOWN      SUNNY     50  30  46 W12       30.32S
GREAT FALLS    CLOUDY    60  26  27 W17       30.33F
CUT BANK       MOSUNNY   56  26  31 W22G32    30.30F
HELENA         CLOUDY    51  34  52 W20       30.42F
BUTTE          CLOUDY    45  30  55 CALM      30.51S
BOZEMAN        CLOUDY    39  28  64 SE6       30.48S

WESTERN MONTANA


CITY           SKY/WX    TMP DP  RH WIND       PRES   REMARKS
MISSOULA       SUNNY     41  24  51 CALM      30.56F
KALISPELL      NOT AVBL

NORTH DAKOTA


CITY           SKY/WX    TMP DP  RH WIND       PRES   REMARKS
WILLISTON      CLOUDY    35  19  52 NW9       30.30R
DICKINSON      CLOUDY    33  11  39 NW18      30.23S
MINOT          CLEAR     29  11  47 NW17      30.25R
BISMARCK       CLOUDY    36  18  48 N23G29    30.24R

SOUTHERN SASKATCHEWAN


CITY           SKY/WX    TMP DP  RH WIND       PRES   REMARKS
REGINA         MOCLDY    28  19  69 S5        30.26F
MOOSE JAW      MOCLDY    36  19  51 S6        30.27F
ESTEVAN        MOCLDY    28  19  69 NW13      30.29S
SWIFT CURRENT  CLOUDY    41  21  45 W9        30.20F





USA.gov is the U.S. government's official web portal to all federal, state and local government web resources and services.